This is the latest recevied weather packets stored in our database for station/object WD9U. If no packets are shown the sender has not sent any weather packets the latest 10 day(s).
| Time | Temp. | Humidity | Pressure | Rain* | Wind** | Luminosity | Snow |
|---|---|---|---|---|---|---|---|
| 1777428539 | 7.22° C | 67% | 1016.7 hPa | 0 mm | - | 0 W/m² | - |
| 1777428179 | 7.78° C | 67% | 1016.7 hPa | 0 mm | - | 0 W/m² | - |
| 1777427819 | 7.78° C | 66% | 1016.4 hPa | 0 mm | - | 0 W/m² | - |
| 1777427459 | 7.78° C | 66% | 1016.4 hPa | 0 mm | - | 0 W/m² | - |
| 1777427099 | 7.78° C | 66% | 1016.1 hPa | 0 mm | - | 0 W/m² | - |
| 1777426739 | 7.78° C | 65% | 1016.1 hPa | 0 mm | - | 0 W/m² | - |
| 1777426379 | 7.78° C | 65% | 1016 hPa | 0 mm | - | 0 W/m² | - |
| 1777426019 | 7.78° C | 64% | 1016 hPa | 0 mm | - | 0 W/m² | - |
| 1777425658 | 8.33° C | 63% | 1015.8 hPa | 0 mm | - | 1 W/m² | - |
| 1777425298 | 8.33° C | 63% | 1015.7 hPa | 0 mm | - | 2 W/m² | - |
| 1777425050 | 8.33° C | 62% | 1015.7 hPa | 0 mm | - | 2 W/m² | - |
| 1777424937 | 8.33° C | 62% | 1015.6 hPa | 0 mm | - | 2 W/m² | - |
| 1777424576 | 8.33° C | 61% | 1015.4 hPa | 0 mm | - | 4 W/m² | - |
| 1777424216 | 8.33° C | 60% | 1015.3 hPa | 0 mm | - | 7 W/m² | - |
| 1777423849 | 8.89° C | 60% | 1015.2 hPa | 0 mm | - | 10 W/m² | - |
| 1777423496 | 8.89° C | 59% | 1015.2 hPa | 0 mm | - | 13 W/m² | - |
| 1777423135 | 8.89° C | 58% | 1015 hPa | 0 mm | - | 18 W/m² | - |
| 1777422776 | 8.89° C | 57% | 1015 hPa | 0 mm | - | 23 W/m² | - |
| 1777422649 | 8.89° C | 57% | 1015 hPa | 0 mm | - | 24 W/m² | - |
| 1777422415 | 9.44° C | 57% | 1015 hPa | 0 mm | - | 31 W/m² | - |
| 1777422056 | 9.44° C | 57% | 1014.8 hPa | 0 mm | - | 40 W/m² | - |
| 1777421694 | 9.44° C | 56% | 1014.8 hPa | 0 mm | - | 49 W/m² | - |
| 1777421447 | 9.44° C | 56% | 1014.8 hPa | 0 mm | - | 56 W/m² | - |
| 1777421333 | 9.44° C | 56% | 1014.8 hPa | 0 mm | - | 53 W/m² | - |
| 1777420973 | 9.44° C | 55% | 1014.8 hPa | 0 mm | - | 51 W/m² | - |
* Rain latest hour (hover to see other rain measurements)
** Current wind speed in m/s (hover to see current wind gust speed)